Temp_Advection
nan nan nan nan nan nan nan nan nan nan nan nan nan nan nan nan nan nan nan nan nan nan nan nan nan nan nan nan nan nan nan nan nan nan nan nan nan nan nan nan nan nan nan nan nan nan nan nan nan nan nan nan nan nan
nan -0 -0 0 -0 -0 -0 -0 -0 -0 -0 -0 -0 -0 0 0 -0 -0 -0 -0 -0 -0 0 -0 -0 0 -0 -0 -1 -1 -0 -0 -1 -0 0 -0 -0 0 -0 0 -0 0 0 0 0 0 -0 -0 0 1 -0 -1 -0 nan
nan -0 -0 -0 -0 -0 -0 -0 -1 -0 -0 -0 0 0 0 -0 -0 -0 -0 -0 -0 0 -0 0 -0 0 1 0 0 -0 -0 -0 -0 -0 -0 0 -0 -0 -0 0 0 -0 -0 -0 0 -0 -0 -0 0 0 0 -0 -0 nan
nan -0 -0 -0 -0 -1 -1 -1 -1 -0 -0 -0 0 0 -0 0 0 -0 0 -0 -0 -0 -0 0 0 -0 0 0 -1 -1 -1 -0 -0 -0 -0 0 0 0 0 -0 0 0 -0 -0 -0 -0 -0 -0 0 0 0 0 0 nan
nan -0 -0 -0 -0 -0 0 0 0 -0 -0 -1 -0 -0 -0 0 0 0 0 0 0 -0 -0 0 0 0 -0 0 -0 0 0 0 -0 -0 -0 0 0 -0 -0 -0 0 0 -0 -0 0 -0 -0 -0 0 0 0 0 0 nan
nan -0 -0 -0 0 0 0 0 1 1 0 -0 -0 0 0 0 0 0 -0 -0 -0 0 -0 -0 0 0 0 0 0 0 0 0 -0 -0 -0 0 -0 -0 -0 0 -0 0 0 -1 -0 0 0 -0 0 0 0 0 -0 nan
nan -0 0 0 -0 0 0 1 1 1 1 1 0 0 0 -0 -0 -0 -0 -0 -0 0 -0 -0 -0 0 0 0 0 0 0 0 -0 -0 -0 0 0 -0 -0 0 0 0 1 0 -1 -2 -1 0 0 0 -0 -0 -0 nan
nan 0 0 0 0 0 0 0 0 0 0 0 0 0 0 0 0 0 0 -0 -0 -0 0 -0 -0 -0 0 -0 0 0 0 -0 -0 -0 -0 -0 -0 -0 -0 -0 0 0 1 1 0 0 -1 -0 -0 -0 -0 -0 -0 nan
nan 0 0 0 0 0 0 0 0 0 0 0 0 -0 0 0 0 0 -0 -0 -0 -0 -0 -0 -0 -0 0 0 0 0 -0 -0 -0 -0 0 -0 -0 0 -0 -1 -0 -0 -0 -0 0 0 0 -0 -0 -0 -0 -0 -0 nan
nan 0 0 -0 0 0 0 -0 -0 -0 -0 0 0 0 0 0 0 -0 0 0 0 0 -0 -0 -0 0 0 -0 -0 0 -0 -0 0 -0 -0 -0 -0 -0 -0 -1 -0 -0 -0 -0 -1 -0 0 -0 -0 -0 -0 -0 -0 nan
nan 0 0 0 0 0 0 0 -0 -0 -0 0 0 0 1 1 0 0 0 0 0 -0 0 -0 -0 -0 -0 -0 0 0 -0 0 0 0 -0 -0 0 0 0 0 -0 0 0 0 -0 -1 -0 -1 -1 -0 -0 -0 -0 nan
nan 0 0 0 0 0 0 0 0 -0 -0 0 0 -0 0 0 0 -0 -0 -0 0 0 -0 0 1 0 0 -0 -0 -0 -0 -0 0 -0 -0 0 -0 -0 0 0 0 0 0 0 0 -0 -0 -0 -0 -0 -0 0 -0 nan
nan -0 -0 0 0 0 -0 -0 0 -0 -1 0 0 0 -0 -0 -0 0 -0 -0 0 -0 0 -1 -0 0 -0 -1 -1 -0 -0 0 -0 -0 -0 -0 -0 0 0 0 0 0 0 0 0 -0 -0 0 0 0 0 0 0 nan
nan 0 0 0 -0 -0 0 0 -0 0 0 -0 -0 -0 -0 -0 0 0 -0 -0 0 0 1 -1 -0 -0 -0 -1 0 0 -0 -0 -0 0 -0 0 0 0 0 0 0 0 0 0 0 0 0 0 0 0 0 0 0 nan
nan 0 0 0 0 -0 0 0 0 0 -0 -0 -0 -0 0 0 0 0 0 0 1 0 -0 -1 -0 -1 -0 -0 0 0 0 -0 -0 -0 0 0 0 0 0 0 0 0 0 0 0 0 0 0 0 0 0 0 0 nan
nan 0 0 0 0 0 0 0 0 -0 -0 -0 -0 -0 -0 0 0 0 0 1 1 0 0 -1 -0 -0 0 -0 -0 -0 -0 0 -0 -0 0 -0 0 0 0 0 0 0 0 0 0 1 0 0 0 0 0 0 0 nan
nan 0 0 0 0 0 0 -0 -0 -0 -0 -0 -0 0 0 -0 -0 0 0 1 1 -1 -0 0 0 -0 -0 0 0 -0 0 -0 -0 0 0 0 0 0 0 0 0 0 0 0 1 1 1 1 1 1 0 0 1 nan
nan -0 0 0 0 0 -0 -0 -0 -0 -0 -0 -0 -0 0 0 0 0 1 1 0 -0 0 -0 -0 -1 -0 0 0 -0 0 0 0 0 0 0 0 0 0 1 1 1 1 1 1 0 0 0 0 0 0 0 0 nan
nan 0 0 0 -0 -0 -0 -0 -0 -0 -0 -0 0 0 0 0 0 0 1 0 0 0 -0 -0 -0 0 0 -0 -0 -0 -0 0 0 0 0 0 0 0 1 0 0 0 1 1 1 1 1 1 0 0 0 -0 -0 nan
nan 0 0 0 -0 -0 -0 -0 -0 -0 -0 0 0 0 0 0 0 0 0 0 0 -0 -1 -0 0 0 0 0 -0 0 0 0 0 0 0 0 0 1 0 0 0 0 0 0 0 1 1 0 0 0 0 -0 0 nan
nan 0 0 -0 -0 -0 -0 -0 -0 -0 -0 0 0 0 0 0 0 0 -0 -0 -0 -0 -0 -0 0 0 0 -0 -0 0 -0 -0 -0 -0 0 0 0 0 0 0 0 0 0 0 0 0 0 0 0 0 0 1 1 nan
nan 0 -0 -0 -0 -0 -0 -0 -0 -0 -0 0 0 0 0 0 -0 -0 -0 -0 -0 -0 0 -0 -0 -0 -0 -0 -0 0 -0 -0 -0 -0 0 0 0 0 0 0 0 0 0 0 0 0 0 0 0 0 0 0 0 nan
nan -0 -0 -0 -0 -0 -0 0 -0 -0 -0 0 0 -0 -0 0 -0 0 0 -0 -0 0 0 0 0 0 0 -0 0 0 0 0 0 0 0 0 0 -0 -0 0 0 0 0 0 0 0 0 0 0 0 0 0 -0 nan
nan -0 -0 -0 -0 0 0 -0 -0 -0 0 0 0 0 0 -0 0 0 0 0 -0 0 0 0 0 0 0 0 0 0 0 0 0 0 0 0 -0 -0 -0 0 0 0 0 0 0 -0 0 0 0 0 0 -0 0 nan
nan -0 -0 -0 0 -0 -0 -0 -0 -0 0 0 -0 0 0 0 0 0 -0 0 -0 0 0 0 0 0 0 0 0 0 0 0 0 0 -0 -0 0 -0 -0 0 0 0 0 -0 -0 -0 0 0 0 0 0 0 0 nan
nan -0 -0 -0 0 -0 -0 -0 -0 0 -0 -0 0 0 0 0 0 -0 0 0 0 0 0 0 0 0 -0 -0 0 0 0 0 0 0 0 0 0 0 0 0 0 -0 -0 -0 -0 -0 -0 -0 0 0 0 0 0 nan
nan -0 0 0 0 -0 -0 0 -0 -1 -0 -0 -0 0 -0 0 -0 -0 0 0 0 0 0 0 0 -0 -0 0 0 0 0 0 0 0 0 0 0 0 0 0 0 0 0 0 0 -0 -0 0 0 0 0 0 0 nan
nan -0 -0 0 0 -1 -1 -0 0 -0 -0 -0 -1 -0 -0 -0 -0 0 0 0 -0 -0 -0 -0 0 0 0 0 0 0 0 0 0 0 0 0 0 0 0 0 0 0 0 0 -0 0 0 0 0 0 0 0 0 nan
nan 0 -1 -0 0 0 -0 -0 -0 0 0 0 -1 -0 0 0 0 0 0 0 -0 -0 -0 0 0 0 0 0 0 0 -0 0 0 0 0 0 0 0 0 0 0 0 0 0 0 0 0 0 1 1 0 0 0 nan
nan 0 -0 -0 -0 -0 -0 -0 -0 -0 0 0 -0 -0 -0 -0 0 0 0 0 0 0 0 0 0 0 0 0 -0 -0 0 0 0 0 -0 0 0 0 0 0 0 0 0 0 0 0 0 0 0 0 0 0 0 nan
nan 0 -0 0 -0 -0 0 0 0 0 0 -0 0 0 -0 -0 0 0 0 0 0 0 0 0 0 0 0 0 0 -0 0 0 0 0 0 0 0 0 0 0 0 0 0 0 0 0 0 0 0 0 0 0 0 nan
nan 0 0 -0 0 0 0 0 -0 -0 -0 0 -0 0 0 -0 0 0 0 0 0 0 0 0 0 0 0 0 0 0 0 0 0 0 -0 -0 0 0 0 0 0 0 0 0 0 0 0 0 0 0 0 0 0 nan
nan nan nan nan nan nan nan nan nan nan nan nan nan nan nan nan nan nan nan nan nan nan nan nan nan nan nan nan nan nan nan nan nan nan nan nan nan nan nan nan nan nan nan nan nan nan nan nan nan nan nan nan nan nan
Wind_Speed
11 14 15 22 12 8 10 15 19 22 24 25 26 28 28 29 30 31 27 24 13 3 4 5 7 15 7 12 5 7 6 3 1 3 3 2 3 3 3 4 6 9 6 3 3 2 5 1 0 5 7 13 15 11
12 12 14 15 9 8 13 12 13 18 22 26 25 28 30 31 29 32 24 22 13 7 3 3 6 3 18 17 14 18 5 7 8 3 1 3 2 0 4 3 3 1 5 5 2 2 3 6 10 14 11 19 13 16
11 12 13 14 13 15 17 20 20 20 23 25 28 29 24 24 35 38 27 19 12 6 5 3 4 9 18 13 17 7 6 8 5 3 4 2 3 3 3 3 3 2 3 4 4 4 5 9 12 12 14 16 15 16
10 11 13 18 19 21 22 27 29 29 31 27 27 24 21 28 32 31 21 19 8 6 3 3 4 2 12 9 23 12 16 10 11 5 3 3 2 1 3 4 3 4 5 7 4 7 11 8 12 15 16 16 18 17
10 11 17 18 24 11 14 18 25 29 30 29 28 28 29 30 25 20 18 19 11 4 4 4 10 6 9 8 12 12 13 12 8 3 2 2 1 2 1 3 2 1 5 4 4 18 8 18 19 17 18 19 20 22
9 14 18 7 20 25 22 24 27 31 36 35 33 34 30 26 23 19 6 15 16 12 3 2 4 9 9 11 12 10 10 7 5 4 2 3 4 3 3 1 1 3 8 11 6 26 11 26 20 19 20 19 23 23
10 6 23 24 23 24 29 33 36 36 38 37 33 30 27 29 20 8 5 22 20 10 3 2 2 3 4 6 10 10 8 6 4 4 3 3 2 3 2 2 5 9 12 17 25 26 22 25 20 23 22 20 19 19
7 23 26 24 27 29 30 31 31 32 32 31 29 30 28 20 15 14 30 19 14 4 3 3 1 2 3 3 3 4 4 4 6 3 3 2 3 3 2 6 16 18 23 26 16 1 24 26 25 25 23 23 22 21
28 27 26 29 27 28 28 28 27 28 28 30 30 26 20 11 9 16 17 11 5 2 4 3 4 2 3 3 3 4 4 3 3 2 1 2 2 1 6 18 22 26 14 15 10 21 29 30 26 28 28 24 25 24
26 26 28 28 27 31 27 24 27 29 28 28 23 6 5 8 23 16 4 3 3 2 1 2 4 1 5 2 3 2 3 2 1 2 2 3 1 4 18 23 21 17 16 17 27 25 27 26 29 30 28 26 26 26
25 28 29 27 27 28 24 28 33 31 26 12 4 5 25 22 8 3 3 2 1 2 2 3 6 4 4 3 2 1 2 0 2 3 3 1 1 1 15 19 19 15 17 16 18 24 28 30 31 30 27 26 26 25
29 29 28 27 29 30 31 31 26 21 10 6 15 23 11 4 2 4 1 1 1 3 2 4 8 6 5 3 3 3 2 2 1 1 3 0 1 13 20 21 17 16 16 16 18 22 22 24 26 27 26 26 25 22
28 28 28 30 30 31 27 18 10 10 22 21 4 3 1 3 6 4 3 2 2 0 5 8 3 4 4 5 4 3 4 2 1 3 2 2 8 18 22 21 19 17 17 17 20 21 23 24 24 25 24 23 21 21
27 27 25 29 24 23 11 10 18 15 6 3 3 4 3 3 1 1 1 2 2 11 22 15 5 4 3 3 0 4 2 2 3 1 3 2 14 20 22 21 20 19 18 22 22 23 23 23 23 20 20 22 20 21
27 27 25 22 21 16 11 16 8 7 4 4 4 3 2 2 5 4 4 6 14 17 16 11 6 4 2 3 1 3 4 1 4 4 1 9 16 20 22 22 20 20 21 24 24 25 22 19 21 21 20 20 20 20
28 27 23 18 17 16 13 8 6 6 4 4 5 4 8 6 2 4 10 13 11 15 11 6 3 3 1 3 3 3 4 4 3 1 7 13 15 18 21 21 18 18 21 22 23 23 21 20 19 19 19 19 19 19
23 21 17 13 12 10 6 7 5 5 4 4 4 9 12 10 5 6 10 10 8 5 2 3 3 3 2 1 1 1 2 1 6 7 9 10 14 19 19 19 19 19 20 18 21 21 20 19 18 19 21 21 20 20
28 22 19 17 14 10 8 6 4 6 5 8 4 7 11 8 7 10 14 14 7 4 2 1 3 3 3 2 2 2 3 5 5 7 8 9 12 15 16 18 18 18 18 18 19 19 18 18 19 19 21 24 24 23
20 15 12 11 11 5 4 5 5 4 7 5 7 9 10 8 9 9 12 10 9 6 4 2 4 1 2 1 2 4 8 8 10 9 9 9 11 14 16 15 14 15 15 16 18 18 18 18 18 20 23 25 25 24
13 11 10 8 9 4 4 5 5 5 3 4 5 8 5 5 6 5 8 8 7 3 5 3 1 2 2 3 2 5 9 10 13 14 11 11 12 12 13 14 15 14 14 15 16 17 18 18 17 20 23 24 23 23
10 8 9 9 10 7 5 4 5 4 4 4 6 6 4 8 9 9 7 8 5 4 2 3 5 9 6 6 5 6 9 12 15 13 17 16 14 14 15 14 13 14 15 17 18 19 20 19 19 21 21 20 19 19
7 4 4 5 5 4 5 6 6 5 4 4 3 3 4 2 3 5 5 7 3 3 3 3 3 5 7 6 6 6 5 5 5 4 7 12 16 16 17 16 15 14 15 16 17 21 21 17 16 20 20 19 20 19
4 4 5 5 4 4 2 2 3 2 3 1 3 3 2 2 2 1 2 1 2 3 2 2 3 3 4 5 6 7 6 6 6 7 5 7 9 9 13 12 10 11 14 15 16 21 18 18 18 21 21 19 19 17
6 4 4 4 5 1 2 2 3 3 4 2 2 3 2 2 1 1 1 3 4 3 4 5 4 3 6 5 5 9 8 6 5 6 6 6 10 9 7 10 9 9 9 13 21 21 20 20 18 20 19 21 20 18
2 5 3 3 2 3 3 3 2 3 1 1 3 1 2 2 1 1 1 3 5 3 3 2 10 7 7 7 7 6 7 6 6 5 6 7 6 8 9 9 9 11 13 17 21 21 21 20 19 19 20 20 19 17
4 5 3 1 2 3 2 2 1 3 2 2 1 3 3 1 1 2 1 3 3 3 5 5 7 10 8 8 10 11 8 7 9 8 8 9 8 8 9 14 14 15 16 17 19 23 22 23 21 20 19 18 16 15
3 2 2 3 2 2 3 3 3 4 2 3 2 3 3 2 3 2 2 2 2 4 4 5 6 7 9 8 8 8 7 6 9 10 9 8 9 9 7 9 13 14 16 17 17 18 18 22 22 20 18 17 15 13
2 2 3 2 3 3 3 2 2 2 2 2 6 2 6 5 2 3 3 3 5 5 6 6 5 5 5 6 6 7 8 9 7 9 9 7 8 8 8 7 8 11 12 14 15 16 17 18 20 19 17 16 16 15
2 5 4 2 1 1 1 2 2 1 2 1 4 1 2 2 3 3 6 3 4 5 5 8 9 8 7 7 7 7 7 7 9 11 11 10 11 10 9 9 10 10 11 13 14 14 14 15 15 16 15 14 14 14
3 6 3 2 3 2 2 0 1 1 1 4 4 4 3 4 5 3 4 5 5 4 3 3 4 7 8 8 8 6 6 9 10 9 8 7 8 11 12 11 11 12 13 15 17 17 16 14 14 16 16 16 16 15
5 3 0 3 3 2 3 2 1 1 2 1 3 4 4 4 3 4 7 7 6 6 7 7 7 6 7 7 8 7 7 8 9 7 6 4 5 7 12 12 12 12 12 14 16 15 15 15 16 16 16 15 14 13
5 4 2 1 1 2 1 1 1 1 1 1 1 2 3 1 3 4 7 9 11 10 10 9 9 8 8 8 8 7 5 6 8 11 10 9 7 6 10 12 12 12 12 13 15 15 14 13 14 14 13 13 12 12
4 6 4 4 4 4 4 4 5 4 5 3 4 6 6 4 4 5 5 7 10 11 10 10 10 9 8 7 7 8 8 8 7 8 10 10 7 7 10 13 13 13 13 13 14 14 14 13 12 12 12 12 11 11
Wind_Direction
261 268 282 280 308 217 219 211 210 211 209 212 209 208 202 203 210 204 189 202 201 203 261 273 262 217 173 175 147 161 103 245 3 100 131 175 124 218 139 205 172 180 173 175 143 113 251 23 130 185 139 122 135 132
273 277 275 293 292 238 224 230 203 205 206 197 195 195 193 200 201 208 187 197 180 212 232 315 303 195 197 179 149 167 161 174 179 111 183 118 114 145 170 160 48 176 176 157 166 174 88 59 105 133 138 141 136 136
277 279 281 286 276 262 239 231 230 221 203 197 203 197 207 219 189 195 173 144 169 158 50 324 311 109 168 151 153 146 172 166 164 168 163 138 137 157 149 218 102 92 141 96 129 141 117 106 119 146 145 142 149 146
277 283 286 286 276 268 264 249 223 204 196 208 207 197 212 160 176 182 190 174 148 119 103 314 21 282 115 135 176 211 181 153 137 130 81 105 123 155 181 152 130 191 117 131 77 127 125 143 147 152 148 155 151 154
288 287 290 291 288 232 179 156 174 189 188 181 176 186 166 167 169 177 188 169 164 139 152 168 101 77 127 140 156 156 159 151 140 88 71 99 77 115 17 78 62 256 153 163 208 173 153 160 166 169 161 158 160 154
289 291 298 151 109 129 134 124 128 142 154 159 168 160 160 162 159 158 149 206 179 140 125 60 65 80 96 120 118 119 138 120 142 124 124 117 133 126 95 113 41 84 153 147 145 158 160 159 167 166 160 156 154 154
312 324 114 123 113 109 117 125 130 135 141 145 146 153 158 162 164 161 168 148 140 134 137 55 359 40 86 101 99 95 101 86 111 104 78 132 97 86 89 158 141 122 126 131 141 134 121 153 157 163 159 155 154 155
96 123 123 124 125 118 118 121 126 132 137 141 144 146 150 135 135 128 136 147 147 144 171 105 302 27 53 60 72 46 72 63 45 87 84 87 65 78 81 129 137 136 137 137 140 217 167 157 156 157 157 157 157 156
116 122 127 129 124 121 122 124 125 136 138 136 134 136 134 127 123 148 148 143 163 194 124 111 133 198 134 59 74 68 54 45 14 70 74 91 333 75 172 157 154 153 154 162 158 147 151 151 153 156 162 163 159 160
117 128 130 127 123 124 118 128 130 123 129 136 121 99 102 113 131 134 122 165 172 169 131 97 123 115 136 75 34 75 38 137 77 288 62 68 253 18 163 171 166 159 160 167 140 149 153 155 159 162 164 167 169 170
132 132 129 126 128 128 125 127 132 131 139 128 69 82 118 126 117 121 122 118 169 45 92 97 131 126 132 101 162 85 161 192 98 260 116 7 320 100 165 157 157 162 167 176 178 171 171 170 167 166 169 175 174 175
130 131 130 131 132 131 130 129 133 136 119 92 123 119 118 123 125 90 321 332 79 165 124 118 129 105 88 106 89 13 99 40 138 309 79 316 254 159 156 155 158 162 169 168 169 166 171 170 169 171 175 176 180 183
134 136 134 134 131 135 134 124 132 135 125 123 117 107 88 1 51 115 172 288 73 188 130 134 65 86 85 67 64 67 68 208 35 47 199 186 142 161 162 160 158 162 162 166 169 169 167 171 177 182 179 180 180 181
133 137 128 134 133 138 127 122 128 129 120 98 91 40 102 344 80 109 57 161 79 129 123 107 69 79 58 54 142 79 252 66 42 55 229 173 157 164 163 164 164 168 172 171 172 174 172 179 183 189 185 180 180 181
139 135 133 133 137 133 128 145 128 101 58 56 41 53 64 67 50 36 44 95 114 119 118 93 65 80 25 71 50 97 36 267 194 220 180 164 171 171 171 175 180 176 180 179 181 182 184 186 184 179 180 180 180 181
137 138 130 131 137 134 125 128 101 69 60 53 48 53 105 89 37 56 69 70 109 113 97 82 95 60 349 135 81 197 144 214 230 181 146 166 176 178 179 181 182 182 184 184 186 189 187 184 183 182 177 181 183 185
136 133 130 138 144 147 107 62 46 51 54 50 37 63 91 83 54 68 63 51 98 97 103 96 80 195 110 68 121 82 175 178 141 134 165 180 187 185 186 186 184 183 183 189 191 187 186 184 183 182 180 175 176 173
118 115 117 124 122 127 79 48 68 58 55 33 61 57 69 84 78 70 64 55 66 58 56 119 121 66 131 143 187 153 127 130 147 163 174 180 185 187 189 187 184 187 190 191 192 190 190 187 186 183 178 172 171 170
117 110 105 114 142 86 61 48 42 78 57 57 61 71 62 66 75 82 51 67 76 77 86 63 68 83 112 104 132 152 167 170 156 160 169 176 185 186 186 190 199 200 202 200 199 199 197 196 195 187 182 178 177 174
115 100 87 108 126 72 65 45 54 73 61 62 64 61 65 59 68 54 58 57 66 51 47 49 87 65 94 78 92 173 171 177 171 161 165 176 184 195 201 201 197 194 193 193 196 194 188 188 188 188 185 183 181 179
129 100 96 113 73 70 81 68 66 74 92 77 74 72 46 61 55 51 38 26 61 36 67 77 104 126 126 96 122 152 159 178 183 185 187 185 193 197 195 195 197 198 199 196 192 188 192 189 182 182 183 182 182 182
104 134 94 59 72 71 73 46 100 103 75 111 70 89 95 55 30 27 19 31 55 51 78 115 126 168 155 131 145 163 149 156 172 190 200 205 190 194 196 196 196 202 201 200 195 189 184 177 177 176 174 170 177 181
62 70 59 42 81 64 76 115 81 84 98 158 110 100 50 71 61 112 99 97 71 103 122 155 144 148 151 149 159 170 178 190 204 208 201 204 204 198 196 196 201 206 194 190 188 183 183 183 186 181 177 183 183 185
38 53 46 54 56 121 90 73 89 87 126 163 144 104 112 101 103 245 165 138 145 164 198 190 184 199 213 220 193 191 187 171 171 175 193 192 185 194 204 205 214 209 203 182 182 186 189 191 189 189 189 190 194 197
58 15 39 1 75 67 47 21 7 69 138 222 83 66 145 191 179 183 180 164 172 171 197 223 197 205 211 200 201 196 198 199 219 226 216 218 214 200 198 206 212 206 193 187 188 193 195 198 197 196 196 199 202 206
73 20 75 178 325 100 187 81 184 180 118 53 88 107 167 157 116 229 94 142 203 227 231 224 207 210 215 220 214 206 220 252 234 240 235 224 231 234 230 210 203 204 206 204 200 201 205 208 205 201 201 202 208 215
68 297 65 49 15 74 32 55 79 93 108 156 186 160 97 97 247 229 157 178 214 215 196 198 203 208 216 213 216 227 235 258 254 234 230 227 224 225 238 233 223 214 210 207 211 215 211 209 205 204 205 209 213 214
107 143 127 57 62 51 127 49 99 189 240 151 127 134 161 189 191 152 198 222 173 162 154 159 167 181 195 209 224 238 246 251 246 223 227 229 234 229 220 201 201 212 216 214 212 214 213 214 210 213 213 216 212 212
126 137 133 40 56 108 44 157 230 93 12 195 131 199 153 105 161 195 198 164 152 154 159 168 174 185 197 207 222 244 244 229 216 213 220 227 223 218 209 205 203 200 200 203 209 211 212 213 217 215 215 215 215 217
156 170 122 129 112 243 209 232 240 292 97 120 112 124 113 125 168 186 190 195 185 183 200 202 199 203 211 223 241 250 228 210 211 225 241 236 236 215 204 203 198 195 191 194 196 195 199 202 203 202 208 211 214 222
145 174 77 181 182 150 207 233 138 62 88 80 152 143 136 163 207 238 221 219 210 207 218 223 239 251 234 227 232 237 229 212 198 203 206 225 238 225 213 205 206 204 200 196 197 201 201 199 201 205 209 215 221 223
175 204 198 54 140 195 140 155 188 194 166 55 197 163 181 193 236 247 235 228 215 216 222 231 239 249 259 248 245 252 256 229 233 231 233 231 226 213 198 196 195 197 201 203 204 205 205 208 206 208 213 217 221 221
193 203 230 168 148 183 182 185 204 198 198 210 231 227 215 230 246 240 242 220 209 214 221 230 238 242 245 248 251 245 249 257 259 222 210 201 201 207 200 199 200 201 200 200 201 203 205 206 208 214 217 216 216 217
Height
1317 1317 1316 1314 1310 1312 1314 1317 1320 1325 1330 1335 1341 1347 1354 1361 1367 1371 1374 1378 1383 1384 1385 1385 1383 1382 1382 1383 1387 1393 1397 1404 1402 1406 1409 1414 1417 1415 1419 1421 1416 1423 1427 1430 1433 1443 1441 1439 1439 1441 1447 1448 1451 1453
1313 1312 1311 1309 1308 1309 1311 1312 1315 1320 1325 1331 1337 1343 1349 1355 1361 1367 1370 1377 1380 1384 1384 1381 1377 1375 1375 1378 1380 1387 1388 1391 1393 1399 1402 1404 1413 1414 1413 1417 1414 1426 1424 1431 1436 1438 1440 1439 1439 1440 1443 1446 1452 1454
1308 1307 1306 1305 1304 1304 1306 1308 1312 1316 1321 1327 1333 1340 1345 1349 1354 1362 1369 1373 1378 1381 1381 1379 1375 1373 1375 1376 1377 1383 1388 1389 1389 1391 1394 1399 1402 1410 1412 1419 1416 1419 1420 1430 1435 1441 1441 1442 1442 1444 1446 1449 1452 1455
1304 1303 1301 1298 1297 1295 1295 1296 1301 1309 1317 1323 1330 1338 1341 1346 1353 1362 1367 1372 1375 1378 1381 1380 1376 1376 1374 1378 1381 1384 1385 1387 1389 1390 1392 1397 1404 1404 1408 1408 1413 1415 1419 1427 1435 1439 1442 1443 1444 1445 1448 1451 1454 1457
1301 1299 1295 1291 1285 1282 1285 1286 1292 1301 1311 1319 1328 1335 1342 1350 1357 1363 1367 1371 1373 1378 1379 1380 1380 1379 1379 1379 1382 1384 1385 1387 1388 1391 1395 1399 1400 1404 1405 1407 1414 1413 1418 1424 1426 1425 1430 1437 1442 1445 1449 1452 1454 1456
1298 1295 1291 1286 1283 1285 1289 1292 1296 1302 1312 1322 1330 1338 1346 1352 1358 1362 1368 1371 1373 1374 1378 1383 1382 1382 1381 1382 1384 1385 1386 1388 1389 1390 1395 1397 1399 1402 1410 1416 1414 1412 1413 1414 1417 1423 1427 1434 1441 1446 1449 1452 1456 1459
1295 1291 1289 1292 1294 1295 1297 1301 1306 1312 1319 1327 1335 1342 1348 1354 1359 1364 1365 1366 1371 1375 1377 1383 1384 1384 1383 1384 1385 1386 1387 1388 1389 1391 1395 1397 1398 1399 1409 1415 1414 1415 1415 1416 1419 1423 1434 1437 1440 1446 1450 1453 1458 1461
1293 1294 1297 1301 1303 1306 1308 1312 1316 1321 1327 1334 1340 1346 1352 1358 1362 1364 1366 1370 1373 1375 1377 1383 1387 1385 1385 1385 1386 1387 1388 1389 1391 1393 1396 1398 1400 1402 1412 1414 1415 1417 1419 1421 1424 1425 1428 1435 1442 1447 1450 1454 1458 1462
1298 1302 1306 1309 1312 1315 1318 1321 1324 1328 1334 1339 1345 1350 1355 1360 1363 1366 1370 1372 1374 1378 1376 1379 1387 1393 1386 1386 1387 1389 1390 1396 1395 1397 1398 1400 1406 1409 1408 1412 1415 1417 1419 1423 1426 1427 1431 1436 1441 1446 1449 1454 1458 1462
1306 1310 1313 1316 1319 1322 1325 1328 1332 1335 1340 1344 1349 1353 1357 1360 1365 1369 1373 1374 1374 1374 1375 1378 1380 1385 1386 1387 1390 1393 1393 1398 1402 1401 1399 1405 1410 1407 1407 1410 1414 1418 1420 1423 1427 1431 1433 1437 1440 1445 1449 1453 1457 1461
1313 1316 1320 1323 1326 1329 1332 1335 1339 1343 1346 1348 1351 1354 1360 1364 1368 1370 1371 1373 1373 1375 1375 1378 1380 1383 1387 1391 1393 1393 1397 1399 1403 1405 1405 1411 1412 1410 1411 1414 1418 1420 1422 1425 1427 1429 1433 1436 1440 1444 1450 1454 1457 1461
1319 1323 1326 1329 1333 1336 1340 1343 1347 1349 1351 1353 1356 1360 1365 1368 1369 1371 1376 1374 1373 1375 1375 1378 1381 1383 1386 1388 1391 1395 1397 1401 1400 1403 1408 1418 1411 1410 1413 1417 1419 1421 1423 1426 1428 1431 1435 1438 1442 1446 1450 1454 1457 1462
1326 1329 1333 1336 1340 1343 1346 1349 1351 1353 1355 1359 1361 1363 1364 1369 1376 1377 1383 1377 1378 1373 1375 1378 1383 1385 1388 1390 1394 1397 1408 1411 1403 1417 1413 1408 1409 1412 1414 1416 1420 1422 1424 1427 1430 1433 1436 1440 1444 1446 1449 1454 1458 1461
1332 1336 1339 1343 1346 1350 1352 1353 1355 1357 1359 1360 1362 1371 1372 1379 1374 1372 1372 1373 1373 1373 1376 1379 1384 1388 1392 1395 1400 1408 1407 1406 1422 1419 1409 1408 1409 1412 1414 1417 1419 1422 1425 1427 1430 1434 1436 1440 1443 1447 1450 1453 1456 1460
1338 1342 1345 1349 1352 1354 1355 1356 1358 1358 1359 1362 1364 1373 1375 1373 1374 1374 1373 1373 1375 1376 1379 1383 1388 1391 1396 1402 1402 1406 1414 1419 1414 1415 1406 1407 1409 1412 1415 1417 1419 1422 1424 1427 1431 1434 1437 1439 1443 1446 1450 1453 1456 1461
1344 1347 1351 1354 1356 1359 1361 1362 1362 1362 1365 1368 1371 1374 1376 1376 1377 1376 1376 1376 1378 1380 1382 1385 1391 1399 1401 1401 1403 1410 1407 1413 1410 1404 1405 1407 1410 1413 1415 1418 1420 1423 1425 1428 1431 1434 1436 1440 1443 1446 1449 1453 1457 1461
1350 1352 1356 1359 1361 1362 1363 1364 1365 1367 1370 1373 1376 1376 1377 1378 1379 1379 1380 1381 1381 1383 1388 1388 1396 1397 1397 1401 1400 1401 1404 1402 1403 1405 1406 1409 1410 1413 1416 1418 1421 1424 1427 1429 1432 1435 1437 1440 1443 1446 1449 1452 1457 1462
1355 1358 1361 1363 1364 1366 1367 1367 1370 1373 1377 1379 1380 1382 1382 1382 1382 1382 1383 1383 1384 1385 1387 1390 1391 1397 1410 1400 1401 1402 1403 1404 1405 1407 1408 1410 1412 1414 1417 1419 1422 1425 1427 1430 1432 1435 1437 1440 1442 1445 1449 1452 1457 1460
1362 1364 1366 1367 1367 1368 1370 1373 1375 1380 1383 1384 1385 1385 1385 1386 1387 1387 1386 1386 1387 1388 1389 1391 1396 1400 1398 1399 1399 1401 1403 1405 1407 1408 1410 1412 1414 1415 1418 1420 1422 1425 1427 1429 1431 1434 1437 1439 1441 1444 1447 1451 1455 1459
1367 1368 1369 1369 1370 1371 1375 1379 1380 1383 1386 1389 1389 1389 1390 1390 1391 1390 1390 1389 1390 1391 1392 1396 1399 1399 1399 1400 1400 1401 1404 1405 1407 1409 1411 1413 1415 1416 1418 1419 1421 1424 1426 1428 1430 1433 1435 1438 1441 1444 1448 1451 1454 1458
1371 1372 1372 1371 1371 1374 1379 1382 1384 1387 1389 1390 1391 1391 1393 1393 1393 1393 1393 1393 1393 1396 1398 1399 1400 1401 1401 1402 1402 1403 1405 1406 1408 1409 1410 1412 1414 1416 1417 1419 1421 1423 1425 1427 1429 1432 1435 1437 1441 1444 1448 1452 1456 1459
1374 1374 1374 1374 1376 1379 1383 1385 1386 1389 1391 1393 1393 1394 1395 1397 1397 1397 1397 1396 1398 1400 1400 1401 1402 1402 1403 1404 1405 1406 1407 1409 1410 1411 1411 1412 1413 1414 1416 1418 1420 1421 1424 1426 1429 1431 1435 1439 1442 1445 1449 1452 1456 1459
1376 1375 1376 1377 1379 1383 1389 1387 1388 1390 1393 1394 1395 1395 1398 1398 1399 1400 1400 1400 1401 1401 1402 1403 1403 1403 1404 1405 1406 1407 1408 1409 1410 1410 1411 1412 1414 1415 1416 1418 1420 1422 1423 1426 1429 1433 1436 1439 1442 1445 1449 1452 1455 1458
1377 1378 1379 1381 1383 1387 1388 1388 1389 1391 1392 1394 1395 1397 1398 1400 1401 1400 1401 1400 1401 1402 1402 1403 1404 1405 1405 1406 1407 1408 1408 1410 1411 1411 1412 1413 1414 1416 1417 1419 1420 1422 1424 1427 1429 1433 1436 1439 1442 1446 1448 1451 1455 1457
1382 1386 1385 1386 1386 1387 1390 1391 1391 1391 1397 1394 1396 1400 1399 1400 1400 1400 1399 1400 1401 1402 1402 1402 1403 1404 1405 1406 1407 1409 1410 1410 1411 1411 1412 1413 1414 1415 1417 1419 1420 1422 1424 1427 1429 1432 1435 1439 1442 1445 1448 1450 1453 1455
1389 1387 1388 1387 1388 1389 1390 1395 1395 1394 1395 1397 1398 1398 1399 1399 1402 1401 1398 1399 1400 1401 1401 1401 1402 1403 1404 1405 1406 1407 1409 1410 1410 1411 1411 1412 1413 1414 1415 1416 1418 1421 1423 1426 1428 1431 1434 1437 1440 1443 1446 1449 1451 1453
1392 1390 1389 1389 1388 1388 1390 1390 1390 1392 1397 1399 1398 1399 1403 1408 1408 1399 1399 1399 1399 1399 1399 1400 1401 1402 1403 1404 1405 1406 1407 1408 1408 1410 1410 1411 1412 1413 1414 1415 1416 1419 1421 1424 1427 1430 1433 1436 1439 1442 1444 1447 1449 1452
1388 1389 1391 1390 1390 1390 1392 1393 1395 1396 1394 1392 1394 1401 1402 1401 1399 1398 1398 1397 1397 1398 1398 1400 1401 1402 1403 1404 1405 1406 1406 1406 1407 1408 1409 1410 1411 1412 1413 1414 1416 1418 1420 1423 1426 1428 1431 1434 1437 1440 1442 1445 1447 1450
1388 1389 1390 1391 1391 1391 1392 1393 1393 1392 1393 1392 1394 1397 1395 1396 1397 1397 1398 1398 1398 1398 1399 1400 1401 1402 1403 1403 1404 1404 1403 1404 1406 1407 1408 1409 1409 1411 1412 1414 1415 1417 1419 1422 1425 1427 1430 1433 1436 1438 1441 1443 1446 1449
1388 1389 1389 1391 1393 1394 1392 1392 1392 1392 1392 1392 1393 1395 1395 1396 1397 1397 1397 1398 1398 1399 1400 1400 1400 1401 1402 1402 1403 1403 1403 1403 1405 1406 1407 1408 1409 1410 1411 1413 1415 1416 1418 1421 1423 1426 1429 1431 1434 1437 1440 1442 1444 1446
1388 1389 1390 1390 1391 1391 1392 1392 1392 1392 1392 1393 1393 1394 1395 1396 1397 1397 1397 1397 1397 1398 1399 1399 1400 1400 1400 1400 1401 1401 1402 1403 1404 1405 1406 1407 1407 1408 1410 1412 1414 1416 1418 1420 1423 1425 1428 1430 1433 1435 1438 1440 1441 1443
1389 1389 1390 1392 1392 1392 1392 1393 1393 1393 1393 1394 1394 1394 1395 1396 1396 1395 1394 1394 1395 1396 1397 1398 1398 1399 1399 1400 1400 1401 1401 1401 1402 1403 1404 1405 1406 1407 1409 1411 1413 1416 1418 1420 1422 1425 1427 1430 1432 1434 1436 1438 1439 1441
1388 1389 1390 1389 1390 1391 1392 1393 1392 1392 1393 1393 1393 1393 1394 1394 1393 1392 1391 1391 1392 1393 1394 1394 1395 1396 1397 1398 1398 1399 1400 1400 1400 1400 1402 1404 1406 1407 1408 1410 1413 1415 1417 1419 1422 1424 1426 1429 1431 1433 1434 1436 1437 1439